FW6209 Weather Reports


time (UTC)temp
C
wind
direction
speed
KPH
gust
KPH
rain 1hr
cm
rain 24hr
cm
rain mn
cm
humidity
%
barometer
mb
20210927062944 15 44 0.0 1.6 0.00 0.05 0.05 93 1017.6
20210927062441 15 44 0.0 3.2 0.00 0.05 0.05 93 1017.7
20210927061942 15 70 0.0 3.2 0.00 0.05 0.05 93 1017.7
20210927061440 15 70 0.0 1.6 0.00 0.05 0.05 93 1017.7
20210927060941 15 70 0.0 1.6 0.00 0.05 0.05 93 1017.8
20210927060438 15 70 0.0 1.6 0.00 0.05 0.05 93 1017.8
20210927055938 15 70 0.0 1.6 0.00 0.05 0.05 93 1017.7
20210927055439 15 70 0.0 1.6 0.00 0.05 0.05 93 1017.7
20210927054938 15 70 0.0 1.6 0.00 0.05 0.05 93 1017.7
20210927054437 15 70 0.0 1.6 0.00 0.05 0.05 93 1017.8
20210927053937 15 70 0.0 1.6 0.00 0.05 0.05 93 1017.8
20210927053437 15 70 0.0 1.6 0.00 0.05 0.05 93 1017.7
20210927052938 15 70 0.0 1.6 0.00 0.05 0.05 93 1017.8
20210927052431 15 70 0.0 1.6 0.00 0.05 0.05 93 1017.7
20210927051926 15 70 0.0 0.0 0.00 0.05 0.05 93 1017.7
20210927051420 15 70 0.0 1.6 0.00 0.05 0.05 93 1017.6
20210927050914 15 70 0.0 1.6 0.00 0.05 0.05 93 1017.6
20210927050408 15 70 0.0 1.6 0.00 0.05 0.05 93 1017.7
20210927045901 15 70 0.0 1.6 0.00 0.05 0.05 93 1017.6
20210927045401 15 70 0.0 3.2 0.00 0.05 0.05 93 1017.6
20210927044900 15 70 0.0 3.2 0.00 0.05 0.05 93 1017.6
20210927044400 15 70 0.0 0.0 0.00 0.05 0.05 93 1017.6
20210927043858 15 70 0.0 0.0 0.00 0.05 0.05 93 1017.6
20210927043359 15 70 0.0 0.0 0.00 0.05 0.05 93 1017.6
20210927042858 15 70 0.0 1.6 0.00 0.05 0.05 93 1017.6
20210927042356 15 70 0.0 1.6 0.00 0.05 0.05 93 1017.6
20210927041855 15 70 0.0 0.0 0.00 0.05 0.05 93 1017.6
20210927041355 15 70 0.0 0.0 0.00 0.05 0.05 93 1017.6
20210927040854 15 70 0.0 0.0 0.00 0.05 0.05 93 1017.6
20210927040351 15 70 0.0 0.0 0.00 0.05 0.05 92 1017.6
20210927035852 15 70 0.0 0.0 0.00 0.05 0.05 92 1017.6
20210927035348 15 70 0.0 1.6 0.00 0.05 0.05 92 1017.7
20210927034848 15 70 0.0 1.6 0.00 0.05 0.05 92 1017.7
20210927034345 15 70 0.0 1.6 0.00 0.05 0.05 92 1017.7
20210927033842 15 70 0.0 1.6 0.00 0.05 0.05 92 1017.7
20210927033343 15 70 0.0 3.2 0.00 0.05 0.05 92 1017.7
20210927032842 15 70 0.0 3.2 0.00 0.05 0.05 92 1017.7
20210927032340 15 242 0.0 3.2 0.00 0.05 0.05 92 1017.7
20210927031842 15 242 0.0 1.6 0.00 0.05 0.05 92 1017.7
20210927031334 15 242 0.0 3.2 0.00 0.05 0.05 92 1017.6
20210927030827 15 242 1.6 3.2 0.00 0.05 0.05 92 1017.6
20210927030320 15 242 1.6 4.8 0.00 0.05 0.05 92 1017.6
20210927025815 15 242 0.0 4.8 0.00 0.05 0.05 92 1017.5
20210927025309 15 242 1.6 4.8 0.00 0.05 0.05 92 1017.5
20210927024802 15 242 1.6 4.8 0.00 0.05 0.05 92 1017.4
20210927024256 15 264 1.6 4.8 0.00 0.05 0.05 92 1017.4
20210927023751 15 264 1.6 4.8 0.00 0.05 0.05 92 1017.3
20210927023245 15 271 1.6 6.4 0.00 0.05 0.05 91 1017.3
20210927022738 16 250 1.6 6.4 0.00 0.05 0.05 91 1017.2
20210927022232 16 264 3.2 6.4 0.00 0.05 0.05 91 1017.2
20210927021736 16 263 3.2 6.4 0.00 0.05 0.05 91 1017.1
20210927021233 16 256 1.6 4.8 0.00 0.05 0.05 90 1017.0
20210927020731 16 254 1.6 4.8 0.00 0.05 0.05 91 1017.0
20210927020231 16 254 3.2 4.8 0.00 0.05 0.05 90 1017.0
20210927015732 16 231 3.2 8.0 0.00 0.05 0.05 90 1016.9
20210927015234 16 250 1.6 8.0 0.00 0.05 0.05 90 1016.9
20210927014731 16 232 3.2 6.4 0.00 0.05 0.05 90 1016.9
20210927014231 16 241 3.2 9.7 0.00 0.05 0.05 90 1016.8
20210927013729 16 263 3.2 11.3 0.00 0.05 0.05 90 1016.8
20210927013230 16 245 4.8 12.9 0.00 0.05 0.05 89 1016.8
20210927012727 16 246 4.8 12.9 0.00 0.05 0.05 89 1016.7
20210927012227 16 272 4.8 11.3 0.00 0.05 0.05 89 1016.7
20210927011729 16 277 4.8 11.3 0.00 0.05 0.05 89 1016.7
20210927011225 16 233 4.8 11.3 0.00 0.05 0.05 89 1016.7
20210927010725 16 265 3.2 11.3 0.00 0.05 0.05 88 1016.7
20210927010227 16 227 4.8 11.3 0.00 0.05 0.05 88 1016.6
20210927005726 17 229 3.2 11.3 0.00 0.05 0.05 88 1016.5
20210927005220 17 259 3.2 11.3 0.00 0.05 0.05 88 1016.5
20210927004721 17 221 3.2 11.3 0.00 0.05 0.05 88 1016.5
20210927004219 17 244 3.2 6.4 0.00 0.05 0.05 88 1016.5
20210927003721 17 252 1.6 6.4 0.00 0.05 0.05 88 1016.6
20210927003220 17 257 1.6 8.0 0.00 0.05 0.05 88 1016.4
20210927002721 17 232 3.2 8.0 0.00 0.05 0.05 89 1016.4
20210927002219 17 248 3.2 8.0 0.00 0.05 0.05 89 1016.4
20210927001717 17 241 4.8 11.3 0.00 0.05 0.05 88 1016.5
20210927001218 17 222 4.8 11.3 0.00 0.05 0.05 89 1016.5
20210927000718 17 258 4.8 12.9 0.00 0.05 0.05 89 1016.5
20210927000219 17 239 6.4 12.9 0.00 0.05 0.05 88 1016.5
20210926235716 17 233 6.4 12.9 0.00 0.05 0.05 88 1016.5
20210926235214 17 221 4.8 12.9 0.00 0.05 0.05 88 1016.5
20210926234713 17 227 4.8 9.7 0.00 0.05 0.05 88 1016.5
20210926234214 17 242 3.2 11.3 0.00 0.05 0.05 89 1016.6
20210926233716 17 250 6.4 12.9 0.00 0.05 0.05 89 1016.6
20210926233215 17 258 6.4 12.9 0.00 0.05 0.05 89 1016.6
20210926232714 17 236 4.8 12.9 0.00 0.05 0.05 89 1016.6
20210926232208 17 240 3.2 11.3 0.00 0.05 0.05 88 1016.6
20210926231702 17 228 3.2 11.3 0.00 0.05 0.05 89 1016.6
20210926231157 17 247 4.8 12.9 0.00 0.05 0.05 89 1016.6
20210926230650 17 238 4.8 12.9 0.00 0.05 0.05 89 1016.7
20210926230144 17 264 3.2 12.9 0.00 0.05 0.05 89 1016.6
20210926225639 17 237 3.2 9.7 0.00 0.05 0.05 89 1016.7
20210926225133 17 248 3.2 9.7 0.00 0.05 0.05 89 1016.7
20210926224627 17 252 4.8 12.9 0.00 0.05 0.05 90 1016.7
20210926224121 17 256 6.4 12.9 0.00 0.05 0.05 89 1016.8
20210926223615 17 247 4.8 11.3 0.00 0.05 0.05 89 1016.7
20210926223109 17 241 4.8 11.3 0.00 0.05 0.05 89 1016.8
20210926222602 17 229 4.8 11.3 0.00 0.05 0.05 89 1016.8
20210926222056 17 269 3.2 9.7 0.00 0.05 0.05 89 1016.9
20210926221550 17 266 3.2 9.7 0.00 0.05 0.05 89 1016.9
20210926221048 17 232 3.2 8.0 0.00 0.05 0.05 89 1016.9
20210926220547 17 263 4.8 14.5 0.00 0.05 0.05 89 1016.9
20210926220045 17 249 4.8 14.5 0.00 0.05 0.05 89 1016.9
20210926215547 17 264 4.8 11.3 0.00 0.05 0.05 89 1016.8
20210926215047 17 263 6.4 14.5 0.00 0.05 0.05 90 1016.7
20210926214545 17 247 8.0 14.5 0.00 0.05 0.05 90 1016.8
20210926214045 17 247 8.0 14.5 0.00 0.05 0.05 90 1016.9
20210926213543 17 232 8.0 16.1 0.00 0.05 0.05 89 1017.0
20210926213043 17 233 6.4 16.1 0.00 0.05 0.05 89 1017.1
20210926212541 17 182 4.8 16.1 0.00 0.05 0.05 89 1017.0
20210926212042 17 227 4.8 12.9 0.00 0.05 0.05 89 1017.0
20210926211542 17 237 6.4 12.9 0.00 0.05 0.05 90 1017.0
20210926211039 17 226 6.4 14.5 0.00 0.05 0.05 89 1017.1
20210926210539 17 265 6.4 14.5 0.00 0.05 0.05 89 1017.0
20210926210038 17 214 6.4 14.5 0.00 0.05 0.05 89 1016.9
20210926205538 17 270 6.4 14.5 0.00 0.05 0.05 89 1017.1
20210926205038 17 211 6.4 14.5 0.00 0.05 0.05 88 1017.1
20210926204539 17 215 4.8 12.9 0.00 0.05 0.05 88 1017.2
20210926204037 18 242 3.2 12.9 0.00 0.05 0.05 87 1017.3
20210926203533 18 240 1.6 11.3 0.00 0.05 0.05 87 1017.2
20210926203033 18 219 1.6 6.4 0.00 0.05 0.05 87 1017.4
20210926202535 18 222 1.6 8.0 0.00 0.05 0.05 87 1017.5
20210926202033 18 171 1.6 8.0 0.00 0.05 0.05 88 1017.2
20210926201535 18 246 1.6 4.8 0.00 0.05 0.05 88 1017.5
20210926201033 18 239 1.6 6.4 0.00 0.05 0.05 88 1017.4
20210926200529 17 244 3.2 11.3 0.00 0.05 0.05 88 1017.4
20210926200029 17 226 4.8 11.3 0.00 0.05 0.05 88 1017.4
20210926195529 18 245 3.2 11.3 0.00 0.05 0.05 88 1017.4
20210926195030 18 239 3.2 11.3 0.00 0.05 0.05 87 1017.4
20210926194529 18 241 1.6 8.0 0.00 0.05 0.05 88 1017.4
20210926194030 17 262 3.2 8.0 0.00 0.05 0.05 88 1017.5
20210926193530 18 249 3.2 9.7 0.00 0.05 0.05 88 1017.5
20210926193027 17 266 3.2 9.7 0.00 0.05 0.05 88 1017.5
20210926192528 17 253 1.6 6.4 0.00 0.05 0.05 89 1017.6
20210926192030 17 213 1.6 6.4 0.00 0.05 0.05 90 1017.5
20210926191524 17 213 3.2 6.4 0.00 0.05 0.05 90 1017.5
20210926191018 17 244 1.6 6.4 0.00 0.05 0.05 90 1017.5
20210926190512 17 186 1.6 9.7 0.00 0.05 0.05 91 1017.6
20210926190006 17 266 1.6 6.4 0.00 0.05 0.05 91 1017.5
20210926185500 17 232 1.6 4.8 0.00 0.05 0.05 91 1017.6
20210926184955 17 173 0.0 3.2 0.00 0.05 0.05 92 1017.7
20210926184448 17 173 1.6 6.4 0.00 0.05 0.05 92 1017.8
20210926183942 17 159 1.6 6.4 0.00 0.05 0.05 92 1017.7
20210926183435 16 158 1.6 4.8 0.00 0.05 0.05 93 1017.7
20210926182929 16 156 1.6 4.8 0.00 0.05 0.05 93 1017.8
20210926182425 16 156 1.6 4.8 0.00 0.05 0.05 93 1017.8
20210926181918 16 223 1.6 4.8 0.00 0.05 0.05 93 1017.8
20210926181412 16 223 1.6 4.8 0.00 0.05 0.05 93 1017.8
20210926180907 16 219 1.6 3.2 0.00 0.05 0.05 93 1017.8
20210926180358 16 219 1.6 4.8 0.00 0.05 0.05 93 1017.9
20210926175852 16 219 1.6 4.8 0.00 0.05 0.05 93 1017.8
20210926175348 16 280 0.0 4.8 0.00 0.05 0.05 93 1017.9
20210926174840 16 346 0.0 3.2 0.00 0.05 0.05 93 1017.8
20210926174334 16 346 0.0 4.8 0.00 0.05 0.05 93 1017.8
20210926173828 16 346 1.6 4.8 0.00 0.05 0.05 93 1017.9
20210926173326 16 247 0.0 3.2 0.00 0.05 0.05 93 1017.8
20210926172817 16 247 0.0 3.2 0.00 0.05 0.05 94 1017.8
20210926172312 16 246 0.0 1.6 0.00 0.05 0.05 94 1017.8
20210926171806 16 246 0.0 4.8 0.00 0.05 0.05 94 1017.8
20210926171300 16 246 0.0 4.8 0.00 0.05 0.05 94 1017.8
20210926170753 16 246 1.6 4.8 0.00 0.05 0.05 93 1017.8
20210926170248 16 246 3.2 6.4 0.00 0.05 0.05 93 1018.0
20210926165745 16 246 3.2 6.4 0.00 0.05 0.05 93 1017.9
20210926165237 16 244 1.6 4.8 0.00 0.05 0.05 94 1017.8
20210926164730 16 244 1.6 6.4 0.00 0.05 0.05 94 1017.9
20210926164223 16 236 1.6 6.4 0.00 0.05 0.05 94 1017.9
20210926163717 16 236 1.6 4.8 0.00 0.05 0.05 94 1017.9
20210926163213 16 236 1.6 6.4 0.00 0.05 0.05 94 1017.9
20210926162705 16 236 1.6 6.4 0.00 0.05 0.05 94 1017.8
20210926162200 16 236 3.2 6.4 0.00 0.05 0.05 94 1017.8
20210926161654 16 236 3.2 6.4 0.00 0.05 0.05 94 1017.8
20210926161148 16 258 1.6 6.4 0.03 0.05 0.05 94 1017.9
20210926160642 16 257 1.6 6.4 0.03 0.05 0.05 94 1017.8
20210926160137 16 257 3.2 6.4 0.03 0.05 0.05 94 1017.7
20210926155629 16 257 1.6 4.8 0.03 0.05 0.05 94 1017.8
20210926155125 16 253 1.6 4.8 0.03 0.05 0.05 94 1017.8
20210926154617 16 253 0.0 4.8 0.03 0.05 0.05 94 1017.8
20210926154111 16 205 0.0 4.8 0.03 0.05 0.05 94 1017.8
20210926153605 16 205 0.0 4.8 0.03 0.05 0.05 94 1017.9
20210926153103 16 209 0.0 3.2 0.03 0.05 0.05 94 1017.8
20210926152554 16 236 0.0 3.2 0.03 0.05 0.05 94 1017.8
20210926152047 15 236 0.0 1.6 0.03 0.05 0.05 94 1017.7
20210926151541 15 236 0.0 1.6 0.03 0.05 0.05 94 1017.7
20210926151035 15 236 0.0 1.6 0.00 0.03 0.03 94 1017.7
20210926150530 15 236 0.0 1.6 0.00 0.03 0.03 94 1017.7
20210926150024 15 236 0.0 1.6 0.00 0.03 0.03 93 1017.6
20210926145518 15 236 0.0 0.0 0.00 0.03 0.03 93 1017.6
20210926145011 15 236 0.0 0.0 0.00 0.03 0.03 93 1017.6
20210926144505 15 236 0.0 0.0 0.00 0.03 0.03 93 1017.6
20210926144000 15 236 0.0 1.6 0.00 0.03 0.03 93 1017.4
20210926143454 15 236 0.0 1.6 0.00 0.03 0.03 93 1017.3
20210926142948 15 236 1.6 4.8 0.00 0.03 0.03 93 1017.4
20210926142442 15 236 1.6 4.8 0.00 0.03 0.03 93 1017.4
20210926141937 15 236 0.0 3.2 0.03 0.03 0.03 93 1017.2
20210926141430 15 236 0.0 1.6 0.03 0.03 0.03 93 1017.1
20210926140927 15 236 0.0 4.8 0.03 0.03 0.03 93 1017.1
20210926140418 15 236 1.6 4.8 0.03 0.03 0.03 93 1017.2
20210926135911 15 236 0.0 3.2 0.03 0.03 0.03 93 1017.1
20210926135406 15 236 0.0 3.2 0.03 0.03 0.03 94 1016.9
20210926134900 15 236 0.0 3.2 0.03 0.03 0.03 93 1017.0
20210926134353 15 236 1.6 4.8 0.03 0.03 0.03 93 1017.0
20210926133848 15 236 1.6 4.8 0.03 0.03 0.03 93 1016.9
20210926133343 15 235 0.0 3.2 0.03 0.03 0.03 93 1016.8
20210926132836 15 235 1.6 4.8 0.03 0.03 0.03 93 1016.8
20210926132330 15 235 1.6 4.8 0.03 0.03 0.03 93 1016.8
20210926131823 15 234 0.0 4.8 0.00 0.00 0.00 93 1016.9
20210926131317 15 234 1.6 4.8 0.00 0.00 0.00 93 1016.9
20210926130812 15 241 1.6 3.2 0.00 0.00 0.00 93 1016.9
20210926130306 15 241 1.6 6.4 0.00 0.00 0.00 93 1016.9
20210926125759 15 257 1.6 6.4 0.00 0.00 0.00 93 1016.9
20210926125253 15 249 1.6 6.4 0.00 0.00 0.00 93 1016.8
20210926124748 15 234 0.0 4.8 0.00 0.00 0.00 93 1016.9
20210926124241 15 221 1.6 4.8 0.00 0.00 0.00 93 1016.9
20210926123736 15 221 1.6 4.8 0.00 0.00 0.00 93 1016.9
20210926123230 15 218 0.0 4.8 0.00 0.00 0.00 93 1016.7
20210926122724 15 218 1.6 4.8 0.00 0.00 0.00 93 1016.9
20210926122217 15 212 0.0 3.2 0.00 0.00 0.00 93 1016.8
20210926121712 15 235 0.0 1.6 0.00 0.00 0.00 93 1016.7
20210926121207 15 235 0.0 3.2 0.00 0.00 0.00 93 1016.8
20210926120700 15 235 0.0 4.8 0.00 0.00 0.00 93 1016.8
20210926120154 15 175 1.6 4.8 0.00 0.00 0.00 93 1016.8
20210926115648 15 175 1.6 6.4 0.00 0.00 0.00 93 1016.7
20210926115142 15 235 1.6 6.4 0.00 0.00 0.00 93 1016.7
20210926114636 15 244 1.6 6.4 0.00 0.00 0.00 93 1016.8
20210926114129 15 242 3.2 6.4 0.00 0.00 0.00 93 1016.7
20210926113624 15 234 3.2 6.4 0.00 0.00 0.00 93 1016.8
20210926113117 15 234 1.6 6.4 0.00 0.00 0.00 93 1016.7
20210926112612 15 238 1.6 6.4 0.00 0.00 0.00 93 1016.5
20210926112106 15 257 1.6 4.8 0.00 0.00 0.00 93 1016.4
20210926111559 15 257 1.6 4.8 0.00 0.00 0.00 93 1016.6
20210926111053 15 257 1.6 4.8 0.00 0.00 0.00 93 1016.7
20210926110547 15 257 1.6 4.8 0.00 0.00 0.00 93 1016.7
20210926110042 15 257 1.6 6.4 0.00 0.00 0.00 93 1016.8
20210926105535 15 257 3.2 6.4 0.00 0.00 0.00 92 1016.8
20210926105029 15 240 1.6 6.4 0.00 0.00 0.00 92 1016.6
20210926104523 15 242 1.6 6.4 0.00 0.00 0.00 92 1016.7
20210926104017 16 248 1.6 4.8 0.00 0.00 0.00 92 1016.8
20210926103512 15 248 3.2 6.4 0.00 0.00 0.00 92 1016.8
20210926103005 15 257 3.2 6.4 0.00 0.00 0.00 92 1016.8
20210926102500 16 242 1.6 4.8 0.00 0.00 0.00 92 1016.7
20210926101953 16 261 0.0 3.2 0.00 0.00 0.00 92 1016.8
20210926101448 16 261 1.6 4.8 0.00 0.00 0.00 92 1016.9
20210926100941 16 261 1.6 4.8 0.00 0.00 0.00 92 1016.8
20210926100435 16 306 0.0 4.8 0.00 0.00 0.00 92 1016.8
20210926095930 16 308 0.0 1.6 0.00 0.00 0.00 92 1016.9
20210926095424 16 308 0.0 3.2 0.00 0.00 0.00 92 1016.8
20210926094918 16 308 1.6 3.2 0.00 0.00 0.00 91 1016.6
20210926094411 16 308 1.6 3.2 0.00 0.00 0.00 91 1016.7
20210926093906 16 308 0.0 3.2 0.00 0.00 0.00 91 1016.9
20210926093401 16 308 0.0 3.2 0.00 0.00 0.00 92 1016.7
20210926092854 16 308 0.0 1.6 0.00 0.00 0.00 91 1016.7
20210926092349 16 308 0.0 1.6 0.00 0.00 0.00 92 1016.7
20210926091842 16 308 0.0 1.6 0.00 0.00 0.00 92 1016.7
20210926091336 16 323 0.0 1.6 0.00 0.00 0.00 92 1016.8
20210926090829 16 323 0.0 1.6 0.00 0.00 0.00 91 1016.9
20210926090324 16 323 0.0 1.6 0.00 0.00 0.00 91 1016.8
20210926085818 16 323 0.0 1.6 0.00 0.00 0.00 91 1016.8
20210926085312 16 323 0.0 3.2 0.00 0.00 0.00 91 1016.8
20210926084805 16 323 0.0 3.2 0.00 0.00 0.00 91 1017.0
20210926084259 16 323 0.0 1.6 0.00 0.00 0.00 91 1017.0
20210926083753 16 323 0.0 1.6 0.00 0.00 0.00 91 1016.9
20210926083247 16 323 0.0 1.6 0.00 0.00 0.00 91 1016.9
20210926082741 16 323 0.0 1.6 0.00 0.00 0.00 91 1016.9
20210926082236 16 323 0.0 1.6 0.00 0.00 0.00 91 1017.0
20210926081730 16 323 0.0 1.6 0.00 0.00 0.00 91 1016.9
20210926081224 16 323 1.6 3.2 0.00 0.00 0.00 91 1017.0
20210926080717 16 323 0.0 3.2 0.00 0.00 0.00 91 1017.0
20210926080212 16 248 0.0 1.6 0.00 0.00 0.00 91 1017.0
20210926075709 16 248 0.0 3.2 0.00 0.00 0.00 91 1017.1
20210926075204 16 248 0.0 3.2 0.00 0.00 0.00 91 1017.2
20210926074704 16 246 0.0 3.2 0.00 0.00 0.00 91 1017.2
20210926074203 16 246 0.0 3.2 0.00 0.00 0.00 91 1017.0
20210926073704 16 246 0.0 1.6 0.00 0.00 0.00 91 1017.1
20210926073205 16 246 0.0 1.6 0.00 0.00 0.00 91 1017.0
20210926072703 16 246 0.0 1.6 0.00 0.00 0.00 91 1017.0
20210926072203 16 246 1.6 3.2 0.00 0.00 0.00 91 1017.0
20210926071704 16 246 0.0 3.2 0.00 0.00 0.00 90 1017.0
20210926071205 16 246 0.0 3.2 0.00 0.00 0.00 90 1017.0
20210926070701 16 246 0.0 3.2 0.00 0.00 0.00 90 1017.0
20210926070202 16 246 0.0 3.2 0.00 0.00 0.00 90 1016.9
20210926065700 16 246 0.0 1.6 0.00 0.00 0.00 90 1017.1
20210926065159 16 246 0.0 1.6 0.00 0.00 0.00 90 1017.0
20210926064700 16 246 0.0 1.6 0.00 0.00 0.00 90 1017.0
20210926064200 16 246 0.0 3.2 0.00 0.00 0.00 92 1017.0
20210926063658 16 246 0.0 3.2 0.00 0.00 0.00 90 1017.1